Location: Aranbee
(34.0885°N, 118.2342°W)
Time: 22:45:18
(UTC+00:00)

Altair - Visible Passes

Search period start: 25 November 2020 00:00
Search period end: 05 December 2020 00:00
Orbit: 1502 x 1682 km, 47.2° (Epoch: 25 November)

Date Brightness Start Highest point End Pass type
(mag) Time Alt. Az. Time Alt. Az. Time Alt. Az.
25 Nov 8.9 02:06:20 10° SSE 02:10:31 14° ESE 02:11:43 13° ESE visible
25 Nov 8.4 04:04:44 10° SW 04:09:46 35° SSW 04:09:46 35° SSW visible
25 Nov 8.5 10:35:26 36° E 10:35:26 36° E 10:40:53 10° ESE visible
25 Nov 7.5 12:33:29 42° W 12:36:34 58° SW 12:45:49 10° SSE visible
26 Nov 9.0 01:42:35 10° SE 01:45:28 12° ESE 01:48:20 10° ESE visible
26 Nov 7.9 03:39:40 10° SSW 03:46:29 47° S 03:46:29 47° S visible
26 Nov 9.7 05:44:32 10° WSW 05:44:34 10° WSW 05:44:34 10° WSW visible
26 Nov 9.0 10:12:05 25° E 10:12:05 25° E 10:15:33 10° E visible
26 Nov 7.4 12:10:09 58° WSW 12:11:27 63° SW 12:20:45 10° SE visible
27 Nov 7.6 03:14:39 10° SSW 03:23:12 52° SE 03:23:12 52° SE visible
27 Nov 9.3 05:19:12 10° WSW 05:21:15 18° WSW 05:21:15 18° WSW visible
27 Nov 9.5 09:48:45 15° E 09:48:45 15° E 09:50:12 10° E visible
27 Nov 7.4 11:46:49 68° SSW 11:46:49 68° SSW 11:55:40 10° SE visible
27 Nov 8.9 13:44:53 10° W 13:49:52 16° SW 13:55:10 10° SSW visible
28 Nov 7.6 02:49:39 10° SSW 02:58:37 48° SE 02:59:51 45° ESE visible
28 Nov 8.8 04:53:53 10° WSW 04:57:54 29° W 04:57:54 29° W visible
28 Nov 7.8 11:23:31 55° SSE 11:23:31 55° SSE 11:30:33 10° SE visible
28 Nov 8.7 13:21:35 16° W 13:24:48 19° SW 13:30:47 10° SSW visible
29 Nov 7.8 02:24:42 10° SSW 02:33:31 43° SE 02:36:29 35° E visible
29 Nov 8.3 04:28:36 10° WSW 04:34:32 42° W 04:34:32 42° W visible
29 Nov 8.3 11:00:15 38° SE 11:00:15 38° SE 11:05:25 10° SE visible
29 Nov 8.5 12:58:19 20° WSW 12:59:44 21° SW 13:06:16 10° S visible
30 Nov 8.0 01:59:46 10° SSW 02:08:25 39° SE 02:13:04 25° E visible
30 Nov 7.7 04:03:19 10° WSW 04:11:06 60° W 04:11:06 60° W visible
30 Nov 8.9 10:36:59 25° SE 10:36:59 25° SE 10:40:16 10° SE visible
30 Nov 8.5 12:35:02 24° SW 12:35:02 24° SW 12:41:40 10° S visible
01 Dec 8.2 01:34:53 10° SSW 01:43:19 36° SE 01:49:36 17° ENE visible
01 Dec 7.4 03:38:02 10° WSW 03:47:32 75° NNW 03:47:39 74° NNW visible
01 Dec 9.6 05:44:55 10° WNW 05:45:42 13° WNW 05:45:42 13° WNW visible
01 Dec 9.4 10:13:43 16° SE 10:13:43 16° SE 10:15:05 10° SE visible
01 Dec 8.6 12:11:46 24° SSW 12:11:46 24° SSW 12:16:59 10° S visible
02 Dec 8.3 01:10:02 10° S 01:18:14 32° SE 01:26:06 10° ENE visible
02 Dec 7.4 03:12:47 10° WSW 03:22:21 80° NW 03:24:09 63° NE visible
02 Dec 9.3 05:19:32 10° W 05:22:11 20° WNW 05:22:11 20° WNW visible
02 Dec 8.8 11:48:29 22° SSW 11:48:29 22° SSW 11:52:15 10° S visible
03 Dec 7.4 02:47:33 10° SW 02:57:10 85° NW 03:00:35 46° NE visible
03 Dec 8.9 04:54:08 10° W 04:58:38 28° WNW 04:58:38 28° WNW visible
03 Dec 9.1 11:25:11 18° S 11:25:11 18° S 11:27:28 10° S visible
04 Dec 7.4 02:22:20 10° SW 02:31:59 90° SE 02:37:00 33° NE visible
04 Dec 8.5 04:28:44 10° W 04:35:02 36° NW 04:35:02 36° NW visible
04 Dec 9.4 11:01:52 13° S 11:01:52 13° S 11:02:37 10° SSE visible
